Location: C�mpuri de-Sus
(45.9500°N, 22.5500°E)
Time: 19:06:39
(UTC+00:00)

Cosmos 839 Rocket - Pass Details

Date: 06 December 2023
Orbit: 960 x 2093 km, 65.9° (Epoch: 20 February)

Event Time Altitude Azimuth Distance (km) Brightness Sun altitude
Exits shadow 04:08:36 23° 283° (WNW) 3,623 6.3 -17.9°
Maximum altitude 04:15:14 37° 331° (NNW) 2,881 6.1 -16.8°
Drops below altitude 10° 04:25:32 10° 36° (NE) 4,245 7.5 -15.1°
Sets 04:29:02 0° 45° (NE) 5,102 8.1 -14.5°
